Regional Weather Roundup
Issued by NWS

Home | Current Version | Previous Version | Graphics & Text | Print | Product List | Glossary On
Versions: 1 2 3 4 5 6 7 8 9 10 11 12 13 14 15 16 17 18 19 20 21 22 23 24 25 26 27 28 29 30 31 32 33 34 35 36 37 38 39 40 41 42 43 44 45 46 47 48 49 50
000
ASUS43 KMKX 290211
RWRWI

WISCONSIN REGIONAL WEATHER ROUNDUP
NATIONAL WEATHER SERVICE MILWAUKEE/SULLIVAN WI
900 PM CDT TUE MAR 28 2017

NOTE: "FAIR" INDICATES FEW OR NO CLOUDS BELOW 12,000 FEET WITH NO
SIGNIFICANT WEATHER AND/OR OBSTRUCTIONS TO VISIBILITY.

WIZ001-002-006>008-014>016-023>028-290300-
NORTHWEST WISCONSIN

CITY           SKY/WX    TMP DP  RH WIND       PRES   REMARKS
SUPERIOR ARPT  PTCLDY    36  33  88 E8        30.24R WCI  29
ASHLAND        CLEAR     32  30  92 N8        30.23R WCI  25
HAYWARD        CLEAR     45  25  45 N5        30.20R
SIREN          CLEAR     42  26  51 CALM      30.19R
CUMBERLAND     CLEAR     45  28  53 CALM      30.19R
RICE LAKE      CLEAR     44  30  58 CALM      30.20R
CHETEK         CLEAR     43  29  57 CALM      30.19R
LADYSMITH      CLEAR     43  32  64 CALM      30.20R
EAU CLAIRE     CLEAR     48  29  47 CALM      30.18R
MENOMONIE      CLEAR     50  32  49 CALM      30.19R
NEW RICHMOND   CLEAR     46  33  62 CALM      30.19R
OSCEOLA        PTCLDY    43  32  65 SE5       30.21R
$$

WIZ003>005-009-010-017-018-290300-
NORTH CENTRAL WISCONSIN

CITY           SKY/WX    TMP DP  RH WIND       PRES   REMARKS
MANITOWISH WTR PTCLDY    39  28  63 NE3       30.20R
ARBOR VITAE    CLEAR     46  30  53 NE3       30.20R
WOODRUFF       CLEAR     46  30  53 NE3       30.20R
RHINELANDER    CLEAR     40  25  55 CALM      30.19R
EAGLE RIVER    CLEAR     42  26  52 NE5       30.20R
LAND O LAKES   PTCLDY    37  27  69 CALM      30.22R
PHILLIPS       CLEAR     46  27  47 NE10      30.19R
TOMAHAWK       CLEAR     37  27  66 CALM      30.20R
MEDFORD        CLEAR     41  33  73 CALM      30.19R
MERRILL        CLEAR     40  28  63 CALM      30.20R
$$

WIZ029-030-035-036-043>047-290300-
CENTRAL WISCONSIN

CITY           SKY/WX    TMP DP  RH WIND       PRES   REMARKS
WAUSAU         CLEAR     49  28  44 SE3       30.19R
MOSINEE        CLEAR     45  28  53 SE5       30.21R
MARSHFIELD     CLEAR     45  35  68 CALM      30.19R
STEVENS POINT  CLEAR     42  31  67 E5        30.22R
WAUPACA        CLEAR     47  28  48 CALM      30.23R
WAUTOMA        CLEAR     42  30  62 CALM      30.23R
WISC RAPIDS    CLEAR     47  31  53 SE7       30.21R
CAMP DOUGLAS   CLEAR     43  32  65 E5        30.19R
$$

WIZ011>013-019>022-031-037>040-048>050-290300-
NORTHEAST WISCONSIN

CITY           SKY/WX    TMP DP  RH WIND       PRES   REMARKS
ANTIGO         CLEAR     41  33  74 SE7       30.21R
SHAWANO        CLEAR     41  32  69 CALM      30.22R
OCONTO         CLEAR     33  32  96 CALM      30.22R
STURGEON BAY   CLEAR     34  32  92 CALM      30.24R
GREEN BAY      CLEAR     41  38  89 S3        30.22R
MANITOWOC      PTCLDY    34  34 100 NW5       30.24R FOG     WCI  30
APPLETON       PTCLDY    46  34  61 NE7       30.20R
CLINTONVILLE   CLEAR     43  28  56 CALM      30.22R
OSHKOSH        CLEAR     43  36  76 E3        30.22R
$$

WIZ032>034-041-042-053>061-290300-
SOUTHWEST WISCONSIN

CITY           SKY/WX    TMP DP  RH WIND       PRES   REMARKS
LA CROSSE      CLEAR     49  39  68 CALM      30.17R
SPARTA         CLEAR     42  34  75 CALM      30.20R
VIROQUA        CLEAR     49  35  57 CALM      30.18R
BOSCOBEL       CLEAR     44  39  82 CALM      30.18R
PRAIRIE DU CHI CLEAR     45  39  80 CALM      30.18R
PLATTEVILLE    CLEAR     45  42  88 CALM      30.18R
$$

WIZ056-057-062-063-064-067-068-290300-
SOUTH CENTRAL WISCONSIN

CITY           SKY/WX    TMP DP  RH WIND       PRES   REMARKS
REEDSBURG      CLEAR     48  33  56 E3        30.19R
BARABOO/DELLS  CLEAR     46  32  57 E7        30.20R
LONE ROCK      CLEAR     47  37  68 E5        30.19R
MINERAL POINT  CLEAR     50  37  62 E3        30.19R
MADISON        CLEAR     46  37  71 NE7       30.19R
MIDDLETON      CLEAR     49  40  71 E7        30.20R
WATERTOWN      CLEAR     40  39  97 E5        30.20R
MONROE         CLEAR     46  37  71 E6        30.18R
JANESVILLE     PTCLDY    45  37  76 E10       30.19R
$$

WIZ051-052-058>065-066-070>072-290300-
SOUTHEAST WISCONSIN

CITY           SKY/WX    TMP DP  RH WIND       PRES   REMARKS
MILWAUKEE      DRZL/FOG  36  34  92 N8        30.23R VSB 1/4 WCI  30
WAUKESHA       FOG       32  32 100 E7        30.22R VSB 1/2 WCI  26
MILWAUKEE/TIMM FOG       34  32  93 NE3       30.23R VSB 3/4
RACINE         FOG       35  34  96 NE9       30.24R VSB 1/2 WCI  28
KENOSHA        FOG       35  34  96 N9        30.22R VSB 1/4 WCI  28
FOND DU LAC    CLEAR     43  32  65 E3        30.22R
SHEBOYGAN      FOG       33  33 100 NE5       30.23R VSB 1/4 WCI  29
WEST BEND      CLOUDY    36  36 100 NE5       30.22R FOG     WCI  32
JUNEAU         CLEAR     43  37  79 NE5       30.22R
$$

LSZ147-162-290300-
LAKE SUPERIOR

STATION/POSITION TIME  TEMP    WIND        PRES    WAVE
                       AIR SEA DIR/SP/G            HT/PER
                 (UTC) (F)     (DEG/KT/KT) (MB)    (FT/S)
DEVILS ISLAND    0100   36      80/ 11/ 12 1024.1R
PORT WING        0140   37      20/ 15/ 17 1023.4R
SAXON HARBOR     0130   34     180/  2/  4 1022.7R
$$

LMZ867-665-643>646-290300-
LAKE MICHIGAN

STATION/POSITION TIME  TEMP    WIND        PRES    WAVE
                       AIR SEA DIR/SP/G            HT/PER
                 (UTC) (F)     (DEG/KT/KT) (MB)    (FT/S)
CHAMBERS ISLAND  0140   30      CALM  /  1 1023.4R
NORTHPORT PIER   0140   31        CALM     1023.7R
SISTER BAY       0136   33        CALM       N/A
KEWAUNEE LAKESHO 0142   31      CALM  /  2 1022.9S
SHEBOYGAN LAKESH 0200   33      20/  8/  9 1024.5R
PORT WASHINGTON  0130   35      40/  5/  6 1024.4R
MILWAUKEE LAKESH 0150   34      30/ 11/ 12   N/A
KENOSHA   LAKESH 0100   35     360/  8/ 11 1022.7
$$

TC  - TEMPERATURE IN CELSIUS
VSB - VISIBILITY IN STATUTE MILES
WCI - WIND CHILL INDEX
HX  - HEAT INDEX




USA.gov is the U.S. government's official web portal to all federal, state and local government web resources and services.